Hourly Data Report for October 27, 2019

All times are specified in Local Standard Time (LST). Add 1 hour to adjust for Daylight Saving Time where and when it is observed.

WOODSTOCK NEWBRIDGE
NEW BRUNSWICK
Current Station Operator: ECCC - MSC

46°09'08.000" N
67°32'34.000" W
154.00 m
8105603
71606
EWD

Download Data

Hourly Data (October 2019)
Hourly Data Report for October 27, 2019
TIME Temp Definition
°C
Dew Point Definition
°C
Rel Hum Definition
%
Wind Dir Definition
10's deg

Wind Spd Definition
km/h
Visibility Definition
km
Stn Press Definition
kPa
Hmdx Definition


Wind Chill Definition


Weather Definition


00:00 -2.9 -3.6 95   0   100.92     LegendNANA
01:00 -2.8 -3.6 94   0   100.90     LegendNANA
02:00 -3.6 -4.4 94 24 3   100.92   -5 LegendNANA
03:00 -3.9 -4.5 96   0   100.93     LegendNANA
04:00 -4.1 -4.9 95   0   100.91     LegendNANA
05:00 -4.5 -5.6 92 12 1   100.94   -5 LegendNANA
06:00 -4.4 -5.3 94   0   100.91     LegendNANA
07:00 -4.7 -5.7 92   0   100.88     LegendNANA
08:00 -2.8 -3.4 96 18 3   100.90   -4 LegendNANA
09:00 -1.0 -1.3 97 27 2   100.87   -2 LegendNANA
10:00 0.5 -0.5 92 36 2   100.83     LegendNANA
11:00 2.5 0.8 88 35 2   100.79     LegendNANA
12:00 3.4 0.8 83 25 6   100.78     LegendNANA
13:00 6.0 -1.7 58 12 6   100.61     LegendNANA
14:00 6.3 -1.5 57 9 7   100.52     LegendNANA
15:00 6.3 -0.6 61 9 7   100.42     LegendNANA
16:00 6.1 -0.2 64 9 7   100.31     LegendNANA
17:00 5.7 -0.2 66 9 10   100.23     LegendNANA
18:00 4.6 1.3 79 9 8   100.20     LegendNANA
19:00 3.8 1.9 87 9 9   100.18     LegendNANA
20:00 3.4 2.2 92 8 5   100.20     LegendNANA
21:00 3.2 2.3 94 8 11   100.18     LegendNANA
22:00 3.2 2.3 94 8 12   100.14     LegendNANA
23:00 2.9 2.1 94 8 15   100.07     LegendNANA

Notes on Data Quality.

Legend

  • E = Estimated
  • M = Missing
  • NA = Not Available
Date modified: